New Castle, PA

8:53 AM EST on December 06, 2019 (GMT -0500)
New Castle Municipal

Weather History for KUCP - November, 2019

Change the Weather History Date:

Wednesday, November 20, 2019

  Actual Average Record
Temperature  
Mean Temperature 38 °F -  
Max Temperature 43 °F 49 °F 76 °F (1985)
Min Temperature 30 °F 31 °F 13 °F (1966)
Degree Days  
Heating Degree Days 27    
Moisture  
Dew Point 34 °F    
Average Humidity 86    
Maximum Humidity 100    
Minimum Humidity 58    
Precipitation  
Precipitation 0.00 in - - ()
Sea Level Pressure  
Sea Level Pressure 30.15 in    
Wind  
Wind Speed 2 mph (West)    
Max Wind Speed 10 mph    
Max Gust Speed 18 mph    
Visibility 5 miles    
Events Rain    
Averages and records for this station are not official NWS values.
T = Trace of Precipitation, MM = Missing Value Source: NWS Daily Summary

Daily Weather History Graph

Daily Weather History Graph

Search for Another Location

Airport or City:

Astronomy

Nov. 20, 2019 Rise Set
Actual Time 7:14 AM EST 4:59 PM EST
Civil Twilight 6:44 AM EST 5:29 PM EST
Nautical Twilight 6:11 AM EST 6:02 PM EST
Astronomical Twilight 5:38 AM EST 6:35 PM EST
Moon No Moon Rise 1:58 PM EST (11/20)
Length of Visible Light 10h 44m
Length of Day
9h 44m
Last Quarter, 41% of the Moon is Illuminated
Nov 20
Last Quarter
Nov 26
New
Dec 4
First Quarter
Dec 12
Full
Dec 18
Last Quarter

Hourly Weather History & Observations

Time (EST) Temp. Windchill Dew Point Humidity Pressure Visibility Wind Dir Wind Speed Gust Speed Precip Events Conditions
12:29 AM 37.4 °F - 35.6 °F 93% 29.94 in 1.2 mi Calm Calm - N/A   Overcast
12:56 AM 37.0 °F - 36.0 °F 96% 30.02 in 1.8 mi Calm Calm - N/A   Overcast
1:34 AM 37.4 °F - 37.4 °F 100% 29.96 in 1.8 mi Calm Calm - N/A   Overcast
1:54 AM 37.4 °F - 37.4 °F 100% 29.97 in 1.8 mi Calm Calm - N/A   Overcast
1:56 AM 37.9 °F - 37.0 °F 97% 30.04 in 1.8 mi Calm Calm - N/A   Overcast
2:52 AM 37.4 °F - 35.6 °F 93% 29.99 in 1.5 mi Calm Calm - N/A   Overcast
2:56 AM 37.9 °F - 36.0 °F 93% 30.06 in 1.5 mi Calm Calm - N/A   Overcast
3:11 AM 37.4 °F - 37.4 °F 100% 29.99 in 2.0 mi Calm Calm - N/A   Overcast
3:27 AM 37.4 °F - 35.6 °F 93% 30.00 in 1.8 mi Calm Calm - N/A   Overcast
3:44 AM 37.4 °F - 37.4 °F 100% 30.00 in 2.0 mi Calm Calm - 0.00 in Rain Light Rain
3:56 AM 37.9 °F 35.5 °F 37.0 °F 97% 30.07 in 2.5 mi West 3.5 mph - 0.00 in Rain Light Rain
4:11 AM 37.4 °F - 37.4 °F 100% 30.01 in 3.0 mi Calm Calm - 0.00 in   Overcast
4:56 AM 37.9 °F - 37.0 °F 97% 30.10 in 3.0 mi Calm Calm - 0.00 in   Overcast
5:12 AM 37.4 °F 34.9 °F 35.6 °F 93% 30.03 in 2.5 mi WSW 3.5 mph - N/A   Overcast
5:51 AM 37.4 °F 33.8 °F 35.6 °F 93% 30.05 in 3.0 mi SW 4.6 mph - N/A   Overcast
5:56 AM 37.0 °F 32.4 °F 35.1 °F 93% 30.12 in 2.5 mi WSW 5.8 mph - N/A   Overcast
6:37 AM 37.4 °F - 35.6 °F 93% 30.07 in 3.0 mi Calm Calm - N/A   Overcast
6:56 AM 37.0 °F 34.5 °F 35.1 °F 93% 30.14 in 2.5 mi SSW 3.5 mph - N/A   Overcast
7:04 AM 35.6 °F 32.8 °F 35.6 °F 100% 30.07 in 2.5 mi SSW 3.5 mph - N/A   Overcast
7:26 AM 35.6 °F 31.7 °F 33.8 °F 93% 30.09 in 1.8 mi WSW 4.6 mph - N/A   Overcast
7:31 AM 35.6 °F 32.8 °F 35.6 °F 100% 30.09 in 2.0 mi SW 3.5 mph - N/A   Overcast
7:43 AM 35.6 °F 32.8 °F 35.6 °F 100% 30.10 in 2.0 mi WSW 3.5 mph - N/A   Overcast
7:56 AM 37.0 °F 34.5 °F 35.1 °F 93% 30.18 in 2.0 mi WSW 3.5 mph - N/A   Overcast
8:16 AM 37.4 °F 34.9 °F 35.6 °F 93% 30.11 in 2.5 mi West 3.5 mph - N/A   Overcast
8:54 AM 37.4 °F 34.9 °F 37.4 °F 100% 30.13 in 2.5 mi West 3.5 mph - N/A   Overcast
8:56 AM 37.9 °F 35.5 °F 37.0 °F 97% 30.20 in 2.5 mi West 3.5 mph - N/A   Overcast
9:17 AM 39.2 °F 35.9 °F 37.4 °F 93% 30.13 in 3.0 mi WNW 4.6 mph - N/A   Overcast
9:56 AM 39.9 °F 36.7 °F 36.0 °F 86% 30.21 in 5.0 mi WNW 4.6 mph - N/A   Overcast
10:47 AM 42.8 °F 38.6 °F 35.6 °F 76% 30.15 in 9.0 mi NNW 6.9 mph - N/A   Overcast
10:56 AM 42.1 °F 36.6 °F 35.1 °F 76% 30.22 in 10.0 mi NW 9.2 mph - N/A   Overcast
11:13 AM 42.8 °F 37.0 °F 32.0 °F 66% 30.16 in 10.0 mi NNW 10.4 mph - N/A   Overcast
11:56 AM 43.0 °F 37.7 °F 30.9 °F 62% 30.22 in 10.0 mi WNW 9.2 mph - N/A   Overcast
12:56 PM 43.0 °F 37.2 °F 28.9 °F 58% 30.23 in 10.0 mi NW 10.4 mph - N/A   Overcast
1:56 PM 43.0 °F 37.7 °F 30.0 °F 60% 30.24 in 10.0 mi WNW 9.2 mph - N/A   Overcast
2:56 PM 42.1 °F 36.1 °F 30.9 °F 65% 30.26 in 10.0 mi WNW 10.4 mph 18.4 mph N/A   Overcast
3:56 PM 42.1 °F 39.2 °F 32.0 °F 67% 30.27 in 10.0 mi NW 4.6 mph - N/A   Overcast
4:41 PM 41.0 °F 35.8 °F 32.0 °F 70% 30.21 in 10.0 mi NW 8.1 mph - N/A   Overcast
4:56 PM 41.0 °F 38.0 °F 32.0 °F 70% 30.29 in 10.0 mi NW 4.6 mph - N/A   Overcast
5:56 PM 41.0 °F 37.1 °F 30.9 °F 67% 30.31 in 10.0 mi NW 5.8 mph - N/A   Overcast
6:56 PM 39.9 °F 36.7 °F 30.0 °F 68% 30.32 in 10.0 mi NW 4.6 mph - N/A   Overcast
7:56 PM 39.9 °F 37.8 °F 30.0 °F 68% 30.33 in 10.0 mi Variable 3.5 mph - N/A   Overcast
8:56 PM 39.9 °F 37.8 °F 30.0 °F 68% 30.35 in 10.0 mi West 3.5 mph - N/A   Overcast
9:56 PM 36.0 °F - 28.9 °F 76% 30.35 in 10.0 mi Calm Calm - N/A   Overcast
10:54 PM 33.8 °F - 28.4 °F 81% 30.26 in 10.0 mi Calm Calm - N/A   Partly Cloudy
10:56 PM 33.1 °F - 28.0 °F 82% 30.33 in 10.0 mi Calm Calm - N/A   Partly Cloudy
11:56 PM 30.9 °F - 28.0 °F 89% 30.35 in 10.0 mi Calm Calm - N/A   Clear